Location: Abyssinia Baptist Church
(32.7840°N, 96.7578°W)
Time: 08:38:19
(UTC+00:00)

SJ 16-02 - Visible Passes

Search period start: 26 June 2022 00:00
Search period end: 06 July 2022 00:00
Orbit: 604 x 615 km, 75.0° (Epoch: 25 June)

Date Brightness Start Highest point End Pass type
(mag) Time Alt. Az. Time Alt. Az. Time Alt. Az.
26 Jun 2.6 08:08:56 10° NNW 08:11:37 37° NNW 08:11:37 37° NNW visible
27 Jun 4.1 06:46:51 10° NE 06:48:26 13° NE 06:48:26 13° NE visible
27 Jun 3.2 08:23:34 10° NNW 08:25:21 22° NW 08:25:21 22° NW visible
28 Jun 3.6 07:00:01 10° NNE 07:02:13 21° NE 07:02:13 21° NE visible
28 Jun 3.8 08:38:41 10° NW 08:39:09 12° NW 08:39:09 12° NW visible
29 Jun 3.4 07:13:56 10° N 07:16:04 26° N 07:16:04 26° N visible
30 Jun 3.5 07:28:15 10° NNW 07:29:56 23° NNW 07:29:56 23° NNW visible
01 Jul 4.1 06:05:48 10° NNE 06:06:56 13° NE 06:06:56 13° NE visible
01 Jul 3.8 07:42:57 10° NNW 07:43:52 15° NW 07:43:52 15° NW visible
02 Jul 3.8 06:19:11 10° N 06:20:53 19° NNE 06:20:53 19° NNE visible
03 Jul 3.7 06:33:11 10° N 06:34:52 22° N 06:34:52 22° N visible
04 Jul 3.8 06:47:34 10° NNW 06:48:53 19° NNW 06:48:53 19° NNW visible
05 Jul 3.9 05:24:49 10° NNE 05:26:00 14° NE 05:26:00 14° NE visible
05 Jul 4.1 07:02:20 10° NW 07:02:56 13° NW 07:02:56 13° NW visible
